Regional Weather Roundup
Issued by NWS

Home | Current Version | Previous Version | Text Only | Print | Product List | Glossary Off
Versions: 1 2 3 4 5 6 7 8 9 10 11 12 13 14 15 16 17 18 19 20 21 22 23 24 25 26 27

000
ASUS45 KCYS 201910
RWRWY

WYOMING REGIONAL WEATHER ROUNDUP
NATIONAL WEATHER SERVICE CHEYENNE WY
100 PM MDT SUN AUG 20 2017

NOTE:  "FAIR" INDICATES FEW OR NO CLOUDS BELOW 12,000 FEET
WITH NO SIGNIFICANT WEATHER AND/OR OBSTRUCTIONS TO VISIBILITY.

WYZ001-202000-
YELLOWSTONE NATIONAL PARK

CITY           SKY/WX    TMP DP  RH WIND       PRES   REMARKS
LK YELLOWSTONE   N/A     67  30  25 VRB3      30.26F
W YELLOWSTONE  NOT AVBL

$$
WYZ002>013-054>058-071-098>099-202000-
NORTHERN WYOMING

CITY           SKY/WX    TMP DP  RH WIND       PRES   REMARKS
JACKSON        FAIR      78  26  14 SW12      30.17F
CODY           FAIR      71  44  37 N10       30.08F
GREYBULL       FAIR      77  36  22 NW3       30.00F
WORLAND        FAIR      76  41  28 NE6       30.02F
SHERIDAN       FAIR      83  43  24 VRB6      30.00F
BUFFALO        FAIR      82  37  20 SE14      30.04F
GILLETTE       FAIR      83  45  26 SE23G33   30.02F
HULETT         FAIR      79  46  31 E12       30.07F
NEWCASTLE      FAIR      79  41  25 SE20G28   30.08F

$$
WYZ014>020-022>026-101>103-202000-
CENTRAL WYOMING

CITY           SKY/WX    TMP DP  RH WIND       PRES   REMARKS
BIG PINEY      FAIR      78  31  17 VRB3      30.22F
PINEDALE       FAIR      77  28  16 S6        30.22F
DUBOIS         FAIR      77  23  13 W21G32    30.18S
LANDER           N/A    N/A N/A N/A MISG      30.07F
RIVERTON       FAIR      83  27  13 VRB5      30.07F
CASPER         FAIR      82  35  18 VRB3      30.07F
DOUGLAS        FAIR      79  48  33 SE20      30.09F

$$
WYZ021-027>030-104>119-202000-
SOUTHERN WYOMING

CITY           SKY/WX    TMP DP  RH WIND       PRES   REMARKS
EVANSTON       FAIR      81  35  19 W14       30.23F
FORT BRIDGER   FAIR      80  29  15 NW17G24   30.25F
ROCK SPRINGS   FAIR      82  29  14 W13G20    30.20F
RAWLINS        FAIR      83  28  13 W14G21    30.20F
SARATOGA       FAIR      81  30  16 S9        30.22F
LARAMIE        FAIR      80  24  12 S8G18     30.23F
CHEYENNE       FAIR      79  42  26 NE10      30.17F
TORRINGTON     FAIR      81  54  39 SE9       30.07F
PINE BLUFFS    FAIR      79  48  34 N12       30.12F

$$




USA.gov is the U.S. government's official web portal to all federal, state and local government web resources and services.